TimeCST,TemperatureF,Dew PointF,Humidity,Sea Level PressureIn,VisibilityMPH,Wind Direction,Wind SpeedMPH,Gust SpeedMPH,PrecipitationIn,Events,Conditions,WindDirDegrees,DateUTC
12:00 AM,83,77,79,29.82,12,East,8.1,,,,Mostly Cloudy,90,2013-05-31 06:00:00
3:00 AM,82,77,81,29.79,12,East,5.8,,,,Mostly Cloudy,90,2013-05-31 09:00:00
5:00 AM,82.4,77.0,84,29.77,6.2,East,8.1,-,N/A,,Mostly Cloudy,90,2013-05-31 11:00:00
6:00 AM,82,78,83,29.81,12,East,6.9,,,,Partly Cloudy,100,2013-05-31 12:00:00
6:00 AM,82.4,77.0,84,29.80,6.2,East,6.9,-,N/A,,Mostly Cloudy,100,2013-05-31 12:00:00
7:00 AM,84.2,78.8,84,29.83,6.2,SE,5.8,-,N/A,,Mostly Cloudy,130,2013-05-31 13:00:00
8:00 AM,86.0,77.0,74,29.83,6.2,East,6.9,-,N/A,,Mostly Cloudy,100,2013-05-31 14:00:00
9:00 AM,87,78,68,29.82,14,East,8.1,,,,Mostly Cloudy,90,2013-05-31 15:00:00
9:00 AM,86.0,78.8,79,29.82,6.2,East,8.1,-,N/A,,Mostly Cloudy,90,2013-05-31 15:00:00
10:00 AM,86.0,78.8,79,29.81,6.2,ENE,10.4,-,N/A,,Mostly Cloudy,70,2013-05-31 16:00:00
11:00 AM,86.0,78.8,79,29.81,6.2,ENE,6.9,-,N/A,,Mostly Cloudy,60,2013-05-31 17:00:00
12:00 PM,88,78,67,29.81,14,NE,10.4,,,,Mostly Cloudy,50,2013-05-31 18:00:00
12:00 PM,87.8,78.8,75,29.80,6.2,NE,10.4,-,N/A,,Mostly Cloudy,50,2013-05-31 18:00:00
1:00 PM,86.0,78.8,79,29.78,6.2,ENE,11.5,-,N/A,,Mostly Cloudy,60,2013-05-31 19:00:00
2:00 PM,86.0,78.8,79,29.78,6.2,East,12.7,-,N/A,,Mostly Cloudy,80,2013-05-31 20:00:00
3:00 PM,86,77,69,29.77,14,East,11.5,,,,Mostly Cloudy,80,2013-05-31 21:00:00
3:00 PM,86.0,77.0,74,29.77,6.2,East,11.5,-,N/A,,Mostly Cloudy,80,2013-05-31 21:00:00
4:00 PM,86.0,77.0,74,29.76,6.2,East,9.2,-,N/A,,Mostly Cloudy,100,2013-05-31 22:00:00
5:00 PM,84.2,77.0,79,29.76,6.2,East,10.4,-,N/A,,Mostly Cloudy,80,2013-05-31 23:00:00
6:00 PM,84,77,74,29.77,12,East,10.4,,,,Partly Cloudy,80,2013-06-01 00:00:00
6:00 PM,84.2,77.0,79,29.76,6.2,East,10.4,-,N/A,,Mostly Cloudy,80,2013-06-01 00:00:00
9:00 PM,82,78,85,29.85,12,East,6.9,,,,,100,2013-06-01 03:00:00